Preview of NWS' New Version of Forecast
This preview is not operational and should not be used for support decisions.

Regional Weather Roundup (RWR)

Issued by National Weather Service (NWS)

                            
000
ASUS45 KABQ 162210
RWRNM 
NEW MEXICO REGIONAL WEATHER ROUNDUP
NATIONAL WEATHER SERVICE ALBUQUERQUE NM
300 PM MST SAT FEB 16 2019

NOTE: "FAIR" MEANS FEW OR NO CLOUDS BELOW 12,000 FEET AGL WITH NO
       SIGNIFICANT WEATHER OR OBSTRUCTIONS TO VISION.

      THIS PRODUCT IS RELEASED AS TWO VERSIONS.  ONE VERSION NEAR
      THE TOP OF THE HOUR CONTAINING PRELIMINARY DATA FROM ALBUQUERQUE
      AND OTHER STATIONS.  A FINAL VERSION WITH ADDITIONAL DATA IS 
      ISSUED ABOUT 10 MINUTES AFTER THE HOUR.
 
NMZ501-503-504-510>518-162300-
NORTHWEST PLATEAU/NORTHCENTRAL MOUNTAINS
  
CITY           SKY/WX    TMP DP  RH WIND       PRES   REMARKS
FARMINGTON     PTSUNNY   34  22  61 NW21G37   29.74R WCI  22          
LOS ALAMOS     PTSUNNY   36   9  32 W29G40    29.68R WCI  24          
SANTA FE       CLOUDY    39  12  33 W21G36    29.67S WCI  29          
TAOS           FAIR      35  12  38 W37G52    29.64R WCI  21          
ANGEL FIRE       N/A     26   7  44 W17G39    29.58R WCI  13          

$$
NMZ402-403-502-505>509-162300-
WESTCENTRAL MOUNTAINS/SOUTHWEST MOUNTAINS
  
CITY           SKY/WX    TMP DP  RH WIND       PRES   REMARKS
GALLUP         LGT SNOW  31  23  72 SW22G29   29.81R WCI  18          
GRANTS         FAIR      38  16  39 W25G35    29.76S WCI  27          
SILVER CITY    PTSUNNY   49  26  41 W29G36    29.84F                  

$$
NMZ407-409-411-412-162300-
SOUTHERN DESERTS
  
CITY           SKY/WX    TMP DP  RH WIND       PRES   REMARKS
DEMING         FAIR      57  21  24 W28G43    29.80F                  
LAS CRUCES     FAIR      62  26  25 W35G48    29.79S                  
HOLLOMAN AFB   CLOUDY    60  15  17 SW30G40   29.73F                  
ALAMOGORDO     FAIR      63  10  13 W36G44    29.74S HAZE             
T OR C         FAIR      57  15  19 W24G33    29.74R                  

$$
NMZ519>523-162300-
CENTRAL VALLEYS/CENTRAL HIGHLANDS
  
CITY           SKY/WX    TMP DP  RH WIND       PRES   REMARKS
ALBUQUERQUE    FAIR      46  15  28 W28G35    29.73R                  
DOUBLE EAGLE   PTSUNNY   45  18  33 W28G38    29.73F                  
MORIARTY ARPT  PTSUNNY   43  22  44 NW36G44   29.71R                  
CLINES CORNERS MIX PCPN  36  21  54 NW28G41   29.67R WCI  23          
BELEN          FAIR      48  19  31 W24G35    29.74S                  
SOCORRO        FAIR      53  21  28 NW23G31   29.71R                  

$$
NMZ524>526-539-540-162300-
SOUTHCENTRAL MOUNTAINS
  
CITY           SKY/WX    TMP DP  RH WIND       PRES   REMARKS
RUIDOSO        NOT AVBL                                               

$$
NMZ527>531-162300-
NORTHEAST HIGHLANDS/NORTHEAST PLAINS
  
CITY           SKY/WX    TMP DP  RH WIND       PRES   REMARKS
LAS VEGAS      FAIR      41  10  28 W36G51    29.59R                  
RATON          FAIR      40   6  24 W24G38    29.50R WCI  29          
CLAYTON        FAIR      52  14  22 W35G44    29.45R                  

$$
NMZ532>537-162300-
EASTCENTRAL PLAINS
  
CITY           SKY/WX    TMP DP  RH WIND       PRES   REMARKS
SANTA ROSA     FAIR      53  19  26 W30G38    29.60R                  
TUCUMCARI      FAIR      62  16  16 W32G48    29.51S                  
CANNON AFB     FAIR      63  13  14 W37G46    29.54F                  
CLOVIS AIRPORT FAIR      63  16  16 W28G39    29.55S                  

$$
NMZ028-029-538-162300-
SOUTHEAST PLAINS
  
CITY           SKY/WX    TMP DP  RH WIND       PRES   REMARKS
ROSWELL        FAIR      69  15  12 W30G43    29.57S HAZE             
ARTESIA        FAIR      70  18  13 SW38G49   29.60F                  
CARLSBAD       FAIR      72  17  12 SW30G45   29.60F                  
HOBBS          SUNNY     70  12  11 SW36G48   29.61F                  


$$